Weather History for Gonzales, LA

Change the Weather History Date:

Wednesday, November 7, 2012

  Actual Average (KBTR) Record (KBTR)
Temperature  
Mean Temperature 56 °F 63 °F  
Max Temperature 70 °F 75 °F 86 °F (1919)
Min Temperature 43 °F 51 °F 28 °F (1959)
Degree Days  
Heating Degree Days 8 4  
Month to date heating degree days 27  
Since 1 July heating degree days 73  
Cooling Degree Days 0 2  
Month to date cooling degree days 18  
Year to date cooling degree days 2768  
Growing Degree Days 6 (Base 50)    
Moisture  
Dew Point 43 °F    
Average Humidity 70    
Maximum Humidity 100    
Minimum Humidity 30    
Precipitation  
Precipitation 0.00 in 0.15 in 6.16 in (1989)
Month to date precipitation 1.01  
Year to date precipitation 51.96  
Snow  
Snow - - - ()
Month to date snowfall  
Since 1 July snowfall  
Since 1 September snowfall  
Snow Depth -    
Sea Level Pressure  
Sea Level Pressure 30.09 in    
Wind  
Wind Speed 2 mph ()    
Max Wind Speed 14 mph    
Max Gust Speed 21 mph    
Visibility 8.7 miles    
Events Fog    
T = Trace of Precipitation, MM = Missing Value Source: Averaged Metar Reports

Daily Weather History Graph

Daily Weather History Graph

Search for Another Location

Airport:

Trip Planner

Search our weather history database for the weather conditions in past years. The results will help you decide how hot, cold, wet, or windy it might be!

Date:

Astronomy

Nov. 07, 2012 Rise Set
Actual Time 6:22 AM CST 5:11 PM CST
Civil Twilight 5:57 AM CST 5:36 PM CST
Nautical Twilight 5:29 AM CST 6:05 PM CST
Astronomical Twilight 5:01 AM CST 6:33 PM CST
Moon No Moon Rise 12:54 PM CST (11/7)
Length of Visible Light 11h 38m
Length of Day
10h 48m
Last Quarter, 43% of the Moon is Illuminated
Nov 7
Last Quarter
Nov 13
New
Nov 20
First Quarter
Nov 28
Full
Dec 6
Last Quarter

Hourly Weather History & Observations

Time (CST) Temp. Dew Point Humidity Pressure Visibility Wind Dir Wind Speed Gust Speed Precip Events Conditions
12:15 AM 46.6 °F 46.4 °F 99% 30.08 in 7.0 mi Calm Calm - N/A   Clear
12:35 AM 46.4 °F 45.9 °F 98% 30.08 in 7.0 mi Calm Calm - N/A   Clear
12:55 AM 46.0 °F 45.7 °F 99% 30.08 in 7.0 mi Calm Calm - N/A   Clear
1:15 AM 45.5 °F 45.5 °F 100% 30.08 in 7.0 mi Calm Calm - N/A   Clear
1:35 AM 46.2 °F 45.7 °F 98% 30.08 in 7.0 mi Calm Calm - N/A   Clear
1:55 AM 45.9 °F 45.0 °F 97% 30.08 in 10.0 mi Calm Calm - N/A   Clear
2:15 AM 45.5 °F 45.1 °F 99% 30.08 in 4.0 mi Calm Calm - N/A   Clear
2:55 AM 44.6 °F 44.4 °F 99% 30.07 in 7.0 mi Calm Calm - N/A   Clear
3:15 AM 45.5 °F 44.6 °F 97% 30.07 in 10.0 mi Calm Calm - N/A   Clear
3:35 AM 45.0 °F 44.6 °F 99% 30.07 in 7.0 mi Calm Calm - N/A   Clear
3:55 AM 45.3 °F 45.0 °F 99% 30.07 in 5.0 mi Calm Calm - N/A   Clear
4:15 AM 44.8 °F 44.6 °F 99% 30.07 in 5.0 mi Calm Calm - N/A   Clear
4:35 AM 44.8 °F 44.6 °F 99% 30.07 in 5.0 mi Calm Calm - N/A   Clear
4:55 AM 44.1 °F 43.9 °F 99% 30.08 in 1.8 mi Calm Calm - N/A   Mist
5:15 AM 44.2 °F 44.2 °F 100% 30.08 in 2.0 mi Calm Calm - N/A   Clear
5:35 AM 44.1 °F 44.1 °F 100% 30.08 in 2.5 mi Calm Calm - N/A   Scattered Clouds
5:55 AM 44.1 °F 44.1 °F 100% 30.09 in 5.0 mi Calm Calm - N/A   Clear
6:15 AM 43.9 °F 43.9 °F 100% 30.09 in 4.0 mi Calm Calm - N/A   Clear
6:35 AM 43.9 °F 43.9 °F 100% 30.09 in 0.5 mi Calm Calm - N/A Fog Fog
7:15 AM 45.7 °F 45.5 °F 99% 30.11 in 7.0 mi Calm Calm - N/A   Clear
7:35 AM 51.6 °F 48.2 °F 88% 30.11 in 10.0 mi North - - N/A   Clear
7:55 AM 52.7 °F 48.2 °F 85% 30.12 in 10.0 mi NNW 4.6 mph - N/A   Clear
8:15 AM 54.1 °F 48.6 °F 81% 30.12 in 10.0 mi North - - N/A   Clear
8:35 AM 56.1 °F 48.6 °F 76% 30.13 in 10.0 mi NW 5.8 mph - N/A   Clear
8:55 AM 57.4 °F 47.8 °F 70% 30.12 in 10.0 mi NNW 5.8 mph - N/A   Clear
9:15 AM 59.2 °F 47.1 °F 64% 30.12 in 10.0 mi North 3.5 mph - N/A   Clear
9:35 AM 60.1 °F 46.4 °F 61% 30.12 in 10.0 mi Calm Calm - N/A   Clear
9:55 AM 61.9 °F 45.0 °F 54% 30.12 in 10.0 mi North 4.6 mph - N/A   Clear
10:15 AM 63.3 °F 43.2 °F 48% 30.11 in 10.0 mi NNW 4.6 mph - N/A   Clear
10:35 AM 63.7 °F 44.4 °F 50% 30.11 in 10.0 mi NW 3.5 mph - N/A   Clear
10:55 AM 65.1 °F 43.2 °F 45% 30.10 in 10.0 mi NNW 5.8 mph - N/A   Clear
11:15 AM 65.7 °F 43.3 °F 44% 30.09 in 10.0 mi NNW 8.1 mph - N/A   Clear
11:35 AM 67.1 °F 39.9 °F 37% 30.08 in 10.0 mi NW 8.1 mph - N/A   Clear
11:55 AM 67.6 °F 41.9 °F 39% 30.07 in 10.0 mi WNW 6.9 mph - N/A   Clear
12:15 PM 68.4 °F 43.7 °F 41% 30.06 in 10.0 mi NW 5.8 mph - N/A   Clear
12:35 PM 68.7 °F 39.0 °F 34% 30.05 in 10.0 mi NW 8.1 mph 18.4 mph N/A   Clear
12:55 PM 68.9 °F 38.7 °F 33% 30.05 in 10.0 mi NNW 13.8 mph 17.3 mph N/A   Clear
1:15 PM 69.4 °F 39.6 °F 34% 30.04 in 10.0 mi NNW 12.7 mph 18.4 mph N/A   Clear
1:35 PM 69.3 °F 39.2 °F 33% 30.03 in 10.0 mi NNW 11.5 mph - N/A   Clear
1:55 PM 69.8 °F 38.8 °F 32% 30.03 in 10.0 mi NNW 12.7 mph 17.3 mph N/A   Clear
2:15 PM 70.0 °F 39.6 °F 33% 30.02 in 10.0 mi NNW 8.1 mph - N/A   Clear
2:35 PM 70.0 °F 39.7 °F 33% 30.02 in 10.0 mi NNW 11.5 mph - N/A   Clear
2:55 PM 69.3 °F 36.5 °F 30% 30.02 in 10.0 mi NW 12.7 mph 17.3 mph N/A   Clear
3:15 PM 69.3 °F 36.5 °F 30% 30.02 in 10.0 mi NNW 10.4 mph 18.4 mph N/A   Clear
3:35 PM 69.1 °F 37.8 °F 32% 30.02 in 10.0 mi NNW 10.4 mph 20.7 mph N/A   Clear
3:55 PM 68.5 °F 38.7 °F 34% 30.03 in 10.0 mi NNW 5.8 mph - N/A   Clear
4:15 PM 68.0 °F 39.2 °F 35% 30.03 in 10.0 mi NNW 5.8 mph - N/A   Clear
4:35 PM 67.1 °F 39.9 °F 37% 30.03 in 10.0 mi NW 5.8 mph - N/A   Clear
4:55 PM 65.1 °F 40.6 °F 41% 30.04 in 10.0 mi NW 3.5 mph - N/A   Clear
5:15 PM 61.9 °F 42.8 °F 50% 30.04 in 10.0 mi Calm Calm - N/A   Clear
5:35 PM 58.1 °F 47.3 °F 67% 30.05 in 10.0 mi Calm Calm - N/A   Clear
5:55 PM 56.5 °F 46.0 °F 68% 30.06 in 10.0 mi Calm Calm - N/A   Clear
6:15 PM 55.2 °F 46.4 °F 72% 30.07 in 10.0 mi Calm Calm - N/A   Clear
6:35 PM 54.0 °F 47.5 °F 79% 30.08 in 10.0 mi Calm Calm - N/A   Clear
6:55 PM 53.2 °F 46.9 °F 79% 30.08 in 10.0 mi Calm Calm - N/A   Clear
7:15 PM 52.3 °F 46.6 °F 81% 30.09 in 10.0 mi Calm Calm - N/A   Clear
7:35 PM 51.3 °F 46.6 °F 84% 30.10 in 10.0 mi Calm Calm - N/A   Clear
7:55 PM 50.4 °F 45.9 °F 85% 30.11 in 10.0 mi Calm Calm - N/A   Clear
8:15 PM 50.2 °F 45.9 °F 85% 30.12 in 10.0 mi Calm Calm - N/A   Clear
8:35 PM 49.8 °F 45.3 °F 84% 30.12 in 10.0 mi Calm Calm - N/A   Clear
8:55 PM 48.7 °F 45.0 °F 87% 30.13 in 10.0 mi Calm Calm - N/A   Clear
9:15 PM 48.2 °F 44.8 °F 88% 30.13 in 10.0 mi North 3.5 mph - N/A   Clear
9:35 PM 48.0 °F 44.2 °F 87% 30.13 in 10.0 mi North 3.5 mph - N/A   Clear
9:55 PM 48.4 °F 43.9 °F 84% 30.14 in 10.0 mi Calm Calm - N/A   Clear
10:15 PM 50.4 °F 41.7 °F 72% 30.15 in 10.0 mi North 4.6 mph - N/A   Clear
10:35 PM 52.5 °F 40.1 °F 63% 30.16 in 10.0 mi NNE 4.6 mph - N/A   Clear
10:55 PM 52.9 °F 39.6 °F 61% 30.16 in 10.0 mi NE 4.6 mph - N/A   Clear
11:15 PM 52.2 °F 39.4 °F 62% 30.17 in 10.0 mi NNE 5.8 mph - N/A   Clear
11:35 PM 51.4 °F 39.4 °F 63% 30.17 in 10.0 mi NNE 3.5 mph - N/A   Clear
11:55 PM 50.4 °F 39.4 °F 66% 30.17 in 10.0 mi Calm Calm - N/A   Clear